Weather History for Plainview, TX

Change the Weather History Date:

Saturday, January 21, 2012

  Actual Average Record
Temperature  
Mean Temperature 43 °F -  
Max Temperature 62 °F 50 °F 78 °F (1986)
Min Temperature 24 °F 26 °F -3 °F (1959)
Degree Days  
Heating Degree Days 22    
Moisture  
Dew Point 25 °F    
Average Humidity 54    
Maximum Humidity 80    
Minimum Humidity 24    
Precipitation  
Precipitation 0.00 in - - ()
Sea Level Pressure  
Sea Level Pressure 29.93 in    
Wind  
Wind Speed 9 mph (SSW)    
Max Wind Speed 26 mph    
Max Gust Speed 32 mph    
Visibility 10 miles    
Events      
Averages and records for this station are not official NWS values.
T = Trace of Precipitation, MM = Missing Value Source: NWS Daily Summary

Daily Weather History Graph

Daily Weather History Graph

Search for Another Location

Airport:

Trip Planner

Search our weather history database for the weather conditions in past years. The results will help you decide how hot, cold, wet, or windy it might be!

Date:

Astronomy

Jan. 21, 2012 Rise Set
Actual Time 7:50 AM CST 6:05 PM CST
Civil Twilight 7:23 AM CST 6:32 PM CST
Nautical Twilight 6:53 AM CST 7:03 PM CST
Astronomical Twilight 6:23 AM CST 7:33 PM CST
Moon 6:21 AM CST (1/21) 4:45 PM CST (1/21)
Length of Visible Light 11h 08m
Length of Day
10h 15m
Waning Crescent, 3% of the Moon is Illuminated
Jan 21
Waning Crescent
Jan 23
New
Jan 30
First Quarter
Feb 7
Full
Feb 14
Last Quarter

Hourly Weather History & Observations

Time (CST) Temp. Windchill Dew Point Humidity Pressure Visibility Wind Dir Wind Speed Gust Speed Precip Events Conditions
12:15 AM 37.4 °F 32.8 °F 24.8 °F 60% 30.04 in 10.0 mi NNE 5.8 mph - N/A   Clear
12:35 AM 37.4 °F 32.1 °F 26.6 °F 65% 30.03 in 10.0 mi NE 6.9 mph - N/A   Clear
12:55 AM 37.4 °F 32.1 °F 26.6 °F 65% 30.04 in 10.0 mi NE 6.9 mph - N/A   Clear
1:15 AM 35.6 °F 29.9 °F 26.6 °F 70% 30.04 in 10.0 mi NNE 6.9 mph - N/A   Clear
1:35 AM 35.6 °F 28.6 °F 26.6 °F 70% 30.04 in 10.0 mi NE 9.2 mph - N/A   Clear
2:15 AM 35.6 °F 30.7 °F 24.8 °F 65% 30.05 in 10.0 mi ENE 5.8 mph - N/A   Clear
2:35 AM 33.8 °F 27.7 °F 26.6 °F 75% 30.04 in 10.0 mi NE 6.9 mph - N/A   Clear
3:15 AM 32.0 °F 26.4 °F 24.8 °F 75% 30.05 in 10.0 mi ENE 5.8 mph - N/A   Clear
3:55 AM 30.2 °F 24.3 °F 23.0 °F 75% 30.05 in 10.0 mi ENE 5.8 mph - N/A   Clear
4:15 AM 30.2 °F 26.7 °F 24.8 °F 80% 30.05 in 10.0 mi NE 3.5 mph - N/A   Clear
4:35 AM 30.2 °F 26.7 °F 23.0 °F 75% 30.05 in 10.0 mi ENE 3.5 mph - N/A   Clear
4:55 AM 30.2 °F 26.7 °F 23.0 °F 75% 30.04 in 10.0 mi NE 3.5 mph - N/A   Clear
5:15 AM 28.4 °F - 21.2 °F 74% 30.05 in 10.0 mi Calm Calm - N/A   Clear
5:35 AM 28.4 °F 23.3 °F 21.2 °F 74% 30.04 in 10.0 mi NE 4.6 mph - N/A   Clear
5:55 AM 28.4 °F 24.6 °F 21.2 °F 74% 30.04 in 10.0 mi NNW 3.5 mph - N/A   Clear
6:15 AM 26.6 °F 22.6 °F 21.2 °F 80% 30.04 in 10.0 mi North 3.5 mph - N/A   Clear
6:35 AM 26.6 °F 18.2 °F 19.4 °F 74% 30.03 in 10.0 mi North 8.1 mph - N/A   Clear
6:55 AM 26.6 °F 20.0 °F 21.2 °F 80% 30.03 in 10.0 mi NNE 5.8 mph - N/A   Clear
7:15 AM 26.6 °F 22.6 °F 21.2 °F 80% 30.03 in 10.0 mi North 3.5 mph - N/A   Clear
7:35 AM 26.6 °F - 19.4 °F 74% 30.03 in 10.0 mi Calm Calm - N/A   Clear
8:15 AM 24.8 °F - 19.4 °F 80% 30.04 in 10.0 mi Calm Calm - N/A   Clear
8:35 AM 26.6 °F 22.6 °F 21.2 °F 80% 30.04 in 10.0 mi WSW 3.5 mph - N/A   Clear
8:55 AM 28.4 °F - 21.2 °F 74% 30.05 in 10.0 mi Calm Calm - N/A   Clear
9:15 AM 30.2 °F 25.4 °F 21.2 °F 69% 30.06 in 10.0 mi SSW 4.6 mph - N/A   Clear
9:35 AM 32.0 °F 25.6 °F 23.0 °F 69% 30.06 in 10.0 mi WSW 6.9 mph - N/A   Clear
9:55 AM 33.8 °F 27.7 °F 24.8 °F 70% 30.07 in 10.0 mi WSW 6.9 mph - N/A   Clear
10:15 AM 35.6 °F 28.6 °F 23.0 °F 60% 30.08 in 10.0 mi WSW 9.2 mph - N/A   Clear
10:35 AM 37.4 °F 32.1 °F 24.8 °F 60% 30.06 in 10.0 mi WSW 6.9 mph - N/A   Clear
11:15 AM 42.8 °F 37.5 °F 26.6 °F 53% 30.04 in 10.0 mi SW 9.2 mph - N/A   Clear
11:35 AM 44.6 °F 39.2 °F 28.4 °F 53% 30.01 in 10.0 mi SSW 10.4 mph - N/A   Clear
11:55 AM 50.0 °F - 30.2 °F 47% 29.99 in 10.0 mi SW 10.4 mph - N/A   Clear
12:15 PM 50.0 °F - 28.4 °F 43% 29.96 in 10.0 mi South 11.5 mph 17.3 mph N/A   Clear
12:35 PM 53.6 °F - 28.4 °F 38% 29.95 in 10.0 mi SSW 12.7 mph 17.3 mph N/A   Clear
12:55 PM 53.6 °F - 28.4 °F 38% 29.93 in 10.0 mi SSW 17.3 mph 20.7 mph N/A   Clear
1:15 PM 55.4 °F - 28.4 °F 36% 29.91 in 10.0 mi SSW 20.7 mph 26.5 mph N/A   Clear
1:35 PM 55.4 °F - 28.4 °F 36% 29.89 in 10.0 mi SW 17.3 mph 28.8 mph N/A   Clear
1:55 PM 55.4 °F - 28.4 °F 36% 29.88 in 10.0 mi SSW 21.9 mph 26.5 mph N/A   Clear
2:15 PM 59.0 °F - 28.4 °F 31% 29.87 in 10.0 mi SSW 19.6 mph 28.8 mph N/A   Clear
2:35 PM 59.0 °F - 28.4 °F 31% 29.85 in 10.0 mi SSW 23.0 mph 28.8 mph N/A   Clear
2:55 PM 60.8 °F - 28.4 °F 29% 29.83 in 10.0 mi SW 18.4 mph 26.5 mph N/A   Clear
3:15 PM 60.8 °F - 26.6 °F 27% 29.82 in 10.0 mi SW 19.6 mph 32.2 mph N/A   Clear
3:35 PM 62.6 °F - 26.6 °F 26% 29.80 in 10.0 mi SSW 21.9 mph 27.6 mph N/A   Clear
3:55 PM 62.6 °F - 26.6 °F 26% 29.79 in 10.0 mi SSW 24.2 mph 32.2 mph N/A   Clear
4:15 PM 62.6 °F - 26.6 °F 26% 29.78 in 10.0 mi SSW 26.5 mph 29.9 mph N/A   Clear
4:35 PM 62.6 °F - 24.8 °F 24% 29.77 in 10.0 mi SSW 24.2 mph 29.9 mph N/A   Clear
4:55 PM 60.8 °F - 24.8 °F 25% 29.76 in 10.0 mi SSW 19.6 mph 27.6 mph N/A   Clear
5:15 PM 60.8 °F - 24.8 °F 25% 29.75 in 10.0 mi SSW 17.3 mph 27.6 mph N/A   Clear
5:35 PM 59.0 °F - 24.8 °F 27% 29.75 in 10.0 mi SSW 16.1 mph 21.9 mph N/A   Clear
5:55 PM 57.2 °F - 24.8 °F 29% 29.74 in 10.0 mi SSW 15.0 mph - N/A   Clear
6:15 PM 55.4 °F - 26.6 °F 33% 29.73 in 10.0 mi South 12.7 mph - N/A   Clear
6:35 PM 53.6 °F - 26.6 °F 35% 29.72 in 10.0 mi South 15.0 mph - N/A   Clear
6:55 PM 51.8 °F - 26.6 °F 38% 29.71 in 10.0 mi South 12.7 mph - N/A   Clear
7:35 PM 50.0 °F - 26.6 °F 40% 29.71 in 10.0 mi South 17.3 mph - N/A   Clear
7:55 PM 50.0 °F - 26.6 °F 40% 29.70 in 10.0 mi South 15.0 mph - N/A   Clear
8:15 PM 50.0 °F - 28.4 °F 43% 29.69 in 10.0 mi South 15.0 mph - N/A   Clear
8:35 PM 50.0 °F - 28.4 °F 43% 29.68 in 10.0 mi South 17.3 mph - N/A   Clear
9:15 PM 50.0 °F - 28.4 °F 43% 29.68 in 10.0 mi South 15.0 mph - N/A   Clear
9:35 PM 48.2 °F - 28.4 °F 46% 29.66 in 10.0 mi South 13.8 mph - N/A   Clear
9:55 PM 46.4 °F 40.4 °F 28.4 °F 50% 29.66 in 10.0 mi South 13.8 mph - N/A   Clear
10:15 PM 46.4 °F 40.1 °F 26.6 °F 46% 29.65 in 10.0 mi SSW 15.0 mph - N/A   Clear
10:35 PM 46.4 °F 40.1 °F 26.6 °F 46% 29.64 in 10.0 mi SSW 15.0 mph - N/A   Clear
10:55 PM 50.0 °F - 24.8 °F 37% 29.64 in 10.0 mi SSW 18.4 mph - N/A   Clear
11:15 PM 50.0 °F - 24.8 °F 37% 29.63 in 10.0 mi SSW 19.6 mph - N/A   Clear
11:35 PM 50.0 °F - 23.0 °F 35% 29.63 in 10.0 mi SSW 16.1 mph - N/A   Clear